Location: ????????
(38.0302°N, 22.9491°E)
Time: 09:44:01
(UTC+00:00)

Daily predictions for brighter satellites

Satellite Brightness Start Highest point End
(mag) Time Altitude Azimuth Time Altitude Azimuth Time Altitude Azimuth
Cosmos 1814 Rocket 4.5 15:29:38 10° NNW 15:34:58 71° WSW 15:40:13 10° S
Cosmos 1743 4.1 15:35:46 10° NE 15:37:26 13° ENE 15:39:06 10° ESE
SMAP 3.3 15:33:33 10° SSE 15:38:01 50° ENE 15:42:31 10° N
Landsat 7 4.1 15:40:29 10° SE 15:44:53 44° ENE 15:49:18 10° N
COSMO-SKYMED 1 4.2 15:43:29 10° ENE 15:45:35 14° E 15:47:41 10° ESE
Lacrosse 4 Rocket 3.2 15:43:59 10° WSW 15:47:33 28° WNW 15:51:05 10° N
IRS-1C 4.2 15:46:50 10° SSE 15:51:59 54° ENE 15:57:10 10° N
SPOT 1/Viking Rocket 4.5 15:48:48 10° ESE 15:53:00 25° ENE 15:57:13 10° NNE
CENTAUR R/B 3.7 15:48:21 10° WSW 15:53:19 34° NW 15:59:23 10° NNE
IGS 5A 4.0 15:50:05 10° S 15:53:59 60° W 15:57:54 10° NNW
AQUARIUS 4.5 15:51:36 10° SE 15:55:43 41° ENE 15:59:52 10° N
MOS 1 Rocket 3.8 15:51:25 10° SE 15:55:44 39° ENE 16:00:19 10° N
ARIANE 5 R/B 2.5 15:52:06 10° SSE 15:57:01 61° ENE 16:02:02 10° N
ISS -0.5 15:54:54 10° W 15:57:05 16° SW 15:59:17 10° S
Cosmos 2098 Rocket 2.7 15:56:13 10° S 15:59:36 56° E 16:03:39 10° NNE
Cosmos 2297 Rocket 3.1 15:57:14 10° N 16:01:58 26° ENE 16:06:40 10° ESE
Cosmos 1758 Rocket 3.6 15:57:53 10° N 16:02:06 52° E 16:06:16 10° SSE
Cosmos 773 Rocket 4.4 16:00:50 10° N 16:05:40 38° ENE 16:10:30 10° SE
Cosmos 1656 3.7 16:04:47 10° SSW 16:10:22 86° WNW 16:16:03 10° NNE
NOSS 2-2 (D) 4.4 16:17:08 10° WSW 16:20:28 33° NW 16:23:09 11° NNE
Cosmos 405 Rocket 2.9 16:20:30 10° NNW 16:23:43 56° W 16:26:52 10° S
NOSS 2-2 (E) 4.0 16:20:33 10° SW 16:24:02 40° NW 16:26:26 14° NNE
SJ-6F 4.2 16:20:36 10° SSE 16:24:31 77° ENE 16:28:30 10° N
Cosmos 1980 Rocket 3.7 16:22:14 10° SE 16:25:21 17° ESE 16:25:21 17° ESE
Cosmos 1626 Rocket 4.0 16:23:11 10° NNW 16:27:29 63° W 16:31:42 10° S
Cosmos 1606 Rocket 3.7 16:26:14 10° SSE 16:30:26 49° E 16:33:46 16° NNE
Helios 1A Rocket 3.1 16:30:55 33° E 16:30:59 33° E 16:34:04 10° SSE
Okean 1-7 Rocket 3.7 16:29:43 10° N 16:33:59 48° E 16:38:11 10° SSE
Cosmos 1461 2.7 16:30:54 10° SSW 16:34:39 56° ESE 16:35:59 36° ENE
Resurs 1-3 3.9 16:31:40 10° SE 16:35:38 38° ENE 16:39:38 10° N
Cosmos 2360 4.4 16:30:33 10° SSW 16:36:14 72° WNW 16:41:58 10° NNE
H-2A R/B 3.2 16:34:34 10° SSW 16:36:27 17° SSE 16:37:53 15° SE
ARIANE 6 FM1 Upper Stage 3.9 16:32:47 10° NW 16:36:32 41° WSW 16:40:22 10° S
NOSS 3-2 (C) 2.9 16:33:17 10° SSW 16:38:07 89° WNW 16:41:55 20° NNE
CZ-4C R/B 3.5 16:34:13 10° NNW 16:40:48 36° NE 16:44:46 24° E
BlueWalker 3 3.3 16:38:17 10° NNW 16:40:31 22° N 16:40:31 22° N
NOSS 3-2 (A) 4.5 16:37:27 10° WSW 16:41:52 32° NW 16:47:00 10° NNE
IRS-P3 4.3 16:37:05 10° S 16:42:23 74° WSW 16:47:42 10° NNW
Cosmos 1503 Rocket 4.0 16:40:10 10° SSW 16:45:27 85° WNW 16:49:52 15° NNE
Cosmos 2263 Rocket 4.2 16:43:41 10° NNE 16:44:07 11° NNE 16:44:07 11° NNE
IRAS Rocket 4.3 16:42:14 10° SE 16:47:32 51° ENE 16:52:50 10° N
NOSS 2-3 (E) 3.9 16:47:02 10° S 16:50:07 36° SE 16:50:07 36° SE
Cosmos 1354 Rocket 3.9 16:45:39 10° S 16:50:54 74° ESE 16:53:57 26° NNE
Cosmos 1933 3.2 16:47:30 10° S 16:51:21 82° W 16:53:31 25° N
SKYMED 2 3.9 16:47:06 10° N 16:51:24 64° WNW 16:55:40 10° SSW
Cosmos 2227 Rocket 3.2 16:47:49 10° N 16:51:16 26° NNE 16:51:16 26° NNE
Spot 4 Rocket 3.9 16:48:08 10° SSE 16:53:11 69° ENE 16:58:16 10° N
NOSS 2-3 (D) 4.0 16:51:35 10° S 16:54:29 35° SSE 16:54:29 35° SSE
Cosmos 1726 Rocket 3.5 16:53:48 10° S 16:58:25 76° E 17:00:32 32° NNE
BREEZE M DEB (TANK) 2.6 16:51:23 10° NW 16:59:01 58° NNE 16:59:19 56° NE
Cosmos 2151 3.8 16:58:46 10° NNW 17:02:47 50° W 17:06:48 10° SSW
Gbstr 26 Del rocket 2.6 17:02:13 10° SW 17:06:06 83° SW 17:06:06 83° SW
Cosmos 1697 Rocket 2.6 17:02:47 10° SSW 17:08:23 85° WNW 17:11:02 33° NNE
DMSP B5D1-3 4.4 17:11:32 63° E 17:11:51 65° ESE 17:16:51 10° S
YAOGAN 1 2.7 17:10:11 10° S 17:14:25 70° WSW 17:18:40 10° NNW
PSLV R/B 4.2 17:14:55 10° S 17:21:32 21° NNW 17:22:55 10° NNW
COSMO-SKYMED 1 3.6 17:19:06 24° NNW 17:21:04 42° WNW 17:24:56 10° SW
SL-19 R/B 4.3 17:19:37 10° S 17:24:50 73° WSW 17:30:17 10° NNW
Cosmos 1607 3.8 17:22:52 10° NNW 17:29:10 86° ENE 17:30:36 56° SE
NOAA 6 4.2 17:30:05 10° S 17:35:10 70° WSW 17:40:17 10° NNW
USA 238 DEB 3.3 17:31:01 10° SSW 17:36:31 71° SSE 17:36:31 71° SSE
USA 238 3.4 17:31:07 10° SSW 17:36:34 69° SSE 17:36:34 69° SSE
Cosmos 724 4.3 17:32:31 10° NNW 17:38:31 77° WSW 17:39:24 64° S
USA 215 4.3 17:45:58 31° N 17:45:58 31° N 17:50:12 10° NNW
Cosmos 2297 Rocket 3.3 17:40:48 10° NW 17:46:05 42° WSW 17:51:21 10° S
Cosmos 1980 Rocket 3.3 18:03:31 10° SW 18:07:09 39° SW 18:07:09 39° SW
CZ-4C R/B 3.5 18:22:03 10° NW 18:29:32 60° WSW 18:29:52 60° SW
Cosmos 2227 Rocket 4.4 18:31:36 10° NW 18:33:08 18° NW 18:33:08 18° NW
